| time (UTC) | temp F | wind direction | speed MPH | gust MPH | rain 1hr in | rain 24hr in | rain mn in | humidity % | barometer mb |
| 20260503211143 | 92 | 360 | 10.0 | 19.0 | 0.00 | 0.00 | 0.00 | 16 | 1007.5 |
| 20260503210123 | 92 | 7 | 8.0 | 13.0 | 0.00 | 0.00 | 0.00 | 17 | 1007.7 |
| 20260503205122 | 93 | 358 | 9.0 | 16.0 | 0.00 | 0.00 | 0.00 | 17 | 1007.7 |
| 20260503204122 | 92 | 0 | 10.0 | 19.0 | 0.00 | 0.00 | 0.00 | 17 | 1007.8 |
| 20260503203122 | 92 | 360 | 12.0 | 23.0 | 0.00 | 0.00 | 0.00 | 17 | 1007.8 |
| 20260503202122 | 91 | 357 | 8.0 | 18.0 | 0.00 | 0.00 | 0.00 | 20 | 1007.9 |
| 20260503201122 | 91 | 360 | 10.0 | 18.0 | 0.00 | 0.00 | 0.00 | 21 | 1008.1 |
| 20260503200122 | 91 | 360 | 6.0 | 12.0 | 0.00 | 0.00 | 0.00 | 21 | 1008.2 |
| 20260503195122 | 92 | 4 | 8.0 | 14.0 | 0.00 | 0.00 | 0.00 | 20 | 1008.5 |
| 20260503194143 | 91 | 360 | 8.0 | 16.0 | 0.00 | 0.00 | 0.00 | 20 | 1008.7 |
| 20260503193122 | 92 | 7 | 9.0 | 17.0 | 0.00 | 0.00 | 0.00 | 20 | 1009.0 |
| 20260503192122 | 91 | 5 | 7.0 | 13.0 | 0.00 | 0.00 | 0.00 | 21 | 1009.1 |
| 20260503191122 | 90 | 1 | 9.0 | 16.0 | 0.00 | 0.00 | 0.00 | 21 | 1009.1 |
| 20260503190122 | 90 | 358 | 8.0 | 14.0 | 0.00 | 0.00 | 0.00 | 21 | 1009.0 |
| 20260503185122 | 90 | 5 | 8.0 | 15.0 | 0.00 | 0.00 | 0.00 | 21 | 1009.4 |
| 20260503184122 | 89 | 7 | 6.0 | 15.0 | 0.00 | 0.00 | 0.00 | 21 | 1009.6 |
| 20260503183122 | 89 | 358 | 9.0 | 16.0 | 0.00 | 0.00 | 0.00 | 19 | 1009.7 |
| 20260503182123 | 89 | 5 | 7.0 | 16.0 | 0.00 | 0.00 | 0.00 | 20 | 1009.9 |
| 20260503181122 | 89 | 5 | 10.0 | 18.0 | 0.00 | 0.00 | 0.00 | 21 | 1009.9 |
| 20260503180122 | 89 | 11 | 7.0 | 14.0 | 0.00 | 0.00 | 0.00 | 21 | 1010.0 |
| 20260503175143 | 88 | 6 | 9.0 | 12.0 | 0.00 | 0.00 | 0.00 | 22 | 1010.1 |
| 20260503174122 | 87 | 9 | 8.0 | 16.0 | 0.00 | 0.00 | 0.00 | 23 | 1010.1 |
| 20260503173122 | 87 | 19 | 9.0 | 16.0 | 0.00 | 0.00 | 0.00 | 23 | 1010.2 |
| 20260503172122 | 87 | 5 | 9.0 | 13.0 | 0.00 | 0.00 | 0.00 | 23 | 1010.3 |
| 20260503171122 | 87 | 3 | 10.0 | 17.0 | 0.00 | 0.00 | 0.00 | 24 | 1010.6 |
| 20260503170123 | 87 | 10 | 7.0 | 14.0 | 0.00 | 0.00 | 0.00 | 24 | 1010.6 |
| 20260503160122 | 83 | 5 | 9.0 | 15.0 | 0.00 | 0.00 | 0.00 | 27 | 1010.6 |
| 20260503150122 | 80 | 0 | 6.0 | 10.0 | 0.00 | 0.00 | 0.00 | 29 | 1010.5 |
| 20260503140144 | 78 | 2 | 7.0 | 10.0 | 0.00 | 0.00 | 0.00 | 31 | 1010.4 |
| 20260503131122 | 77 | 5 | 4.0 | 8.0 | 0.00 | 0.00 | 0.00 | 32 | 1010.0 |
| 20260503130122 | 76 | 3 | 5.0 | 10.0 | 0.00 | 0.00 | 0.00 | 33 | 1009.9 |
| 20260503120145 | 76 | 4 | 5.0 | 9.0 | 0.00 | 0.00 | 0.00 | 32 | 1009.3 |
| 20260503110122 | 79 | 13 | 6.0 | 11.0 | 0.00 | 0.00 | 0.00 | 29 | 1009.5 |
| 20260503100122 | 78 | 4 | 3.0 | 6.0 | 0.00 | 0.00 | 0.00 | 29 | 1009.3 |
| 20260503090122 | 80 | 4 | 6.0 | 10.0 | 0.00 | 0.00 | 0.00 | 25 | 1009.2 |
| 20260503081122 | 80 | 7 | 7.0 | 11.0 | 0.00 | 0.00 | 0.00 | 23 | 1009.8 |
| 20260503080122 | 81 | 21 | 5.0 | 8.0 | 0.00 | 0.00 | 0.00 | 22 | 1010.0 |
| 20260503072122 | 79 | 23 | 4.0 | 8.0 | 0.00 | 0.00 | 0.00 | 23 | 1010.1 |
| 20260503071122 | 79 | 10 | 3.0 | 8.0 | 0.00 | 0.00 | 0.00 | 22 | 1010.0 |
| 20260503070122 | 78 | 11 | 5.0 | 9.0 | 0.00 | 0.00 | 0.00 | 22 | 1010.0 |
| 20260503060122 | 77 | 76 | 3.0 | 4.0 | 0.00 | 0.00 | 0.00 | 22 | 1009.8 |
| 20260503055122 | 75 | 4 | 2.0 | 6.0 | 0.00 | 0.00 | 0.00 | 23 | 1009.8 |
| 20260503054122 | 74 | 360 | 2.0 | 3.0 | 0.00 | 0.00 | 0.00 | 23 | 1009.7 |
| 20260503053123 | 75 | 360 | 1.0 | 4.0 | 0.00 | 0.00 | 0.00 | 23 | 1009.7 |
| 20260503052123 | 75 | 360 | 0.0 | 2.0 | 0.00 | 0.00 | 0.00 | 23 | 1009.8 |
| 20260503051123 | 76 | 360 | 0.0 | 1.0 | 0.00 | 0.00 | 0.00 | 21 | 1009.8 |
| 20260503050123 | 78 | 360 | 2.0 | 3.0 | 0.00 | 0.00 | 0.00 | 20 | 1009.8 |
| 20260503045143 | 78 | 1 | 3.0 | 4.0 | 0.00 | 0.00 | 0.00 | 20 | 1009.5 |
| 20260503044123 | 79 | 2 | 4.0 | 6.0 | 0.00 | 0.00 | 0.00 | 19 | 1009.3 |
| 20260503043122 | 78 | 1 | 4.0 | 8.0 | 0.00 | 0.00 | 0.00 | 19 | 1009.2 |
| 20260503042123 | 76 | 6 | 4.0 | 6.0 | 0.00 | 0.00 | 0.00 | 21 | 1009.2 |
| 20260503041143 | 76 | 6 | 4.0 | 5.0 | 0.00 | 0.00 | 0.00 | 20 | 1009.0 |
| 20260503040122 | 76 | 4 | 3.0 | 4.0 | 0.00 | 0.00 | 0.00 | 20 | 1008.9 |
| 20260503035122 | 77 | 360 | 3.0 | 4.0 | 0.00 | 0.00 | 0.00 | 20 | 1008.8 |
| 20260503034143 | 77 | 12 | 3.0 | 4.0 | 0.00 | 0.00 | 0.00 | 20 | 1008.7 |
| 20260503033122 | 78 | 42 | 4.0 | 5.0 | 0.00 | 0.00 | 0.00 | 19 | 1008.7 |
| 20260503032143 | 78 | 53 | 4.0 | 5.0 | 0.00 | 0.00 | 0.00 | 19 | 1008.6 |
| 20260503031123 | 79 | 26 | 3.0 | 3.0 | 0.00 | 0.00 | 0.00 | 19 | 1008.6 |
| 20260503030122 | 80 | 21 | 3.0 | 3.0 | 0.00 | 0.00 | 0.00 | 18 | 1008.5 |
| 20260503025123 | 80 | 8 | 1.0 | 3.0 | 0.00 | 0.00 | 0.00 | 19 | 1008.5 |
| 20260503024123 | 82 | 360 | 0.0 | 0.0 | 0.00 | 0.00 | 0.00 | 17 | 1008.2 |
| 20260503023122 | 83 | 360 | 0.0 | 0.0 | 0.00 | 0.00 | 0.00 | 17 | 1008.2 |
| 20260503022123 | 84 | 360 | 0.0 | 0.0 | 0.00 | 0.00 | 0.00 | 16 | 1008.2 |
| 20260503021122 | 87 | 360 | 1.0 | 3.0 | 0.00 | 0.00 | 0.00 | 14 | 1008.3 |
| 20260503020122 | 87 | 360 | 1.0 | 3.0 | 0.00 | 0.00 | 0.00 | 14 | 1008.3 |
| 20260503015122 | 88 | 130 | 2.0 | 4.0 | 0.00 | 0.00 | 0.00 | 14 | 1008.3 |
| 20260503014122 | 88 | 350 | 3.0 | 5.0 | 0.00 | 0.00 | 0.00 | 14 | 1008.2 |
| 20260503013122 | 88 | 360 | 1.0 | 3.0 | 0.00 | 0.00 | 0.00 | 14 | 1008.2 |
| 20260503012143 | 88 | 2 | 2.0 | 3.0 | 0.00 | 0.00 | 0.00 | 14 | 1008.4 |
| 20260503011122 | 88 | 360 | 2.0 | 5.0 | 0.00 | 0.00 | 0.00 | 14 | 1008.3 |
| 20260503010123 | 89 | 1 | 3.0 | 6.0 | 0.00 | 0.00 | 0.00 | 14 | 1008.4 |
| 20260503005122 | 89 | 357 | 3.0 | 8.0 | 0.00 | 0.00 | 0.00 | 14 | 1008.4 |
| 20260503004122 | 89 | 3 | 4.0 | 9.0 | 0.00 | 0.00 | 0.00 | 14 | 1008.5 |
| 20260503003122 | 90 | 1 | 5.0 | 9.0 | 0.00 | 0.00 | 0.00 | 14 | 1008.5 |
| 20260503002122 | 89 | 7 | 4.0 | 10.0 | 0.00 | 0.00 | 0.00 | 14 | 1008.4 |
| 20260503001123 | 89 | 358 | 2.0 | 4.0 | 0.00 | 0.00 | 0.00 | 15 | 1008.5 |
| 20260503000123 | 89 | 24 | 4.0 | 9.0 | 0.00 | 0.00 | 0.00 | 14 | 1008.6 |
| 20260502235123 | 90 | 17 | 3.0 | 8.0 | 0.00 | 0.00 | 0.00 | 14 | 1008.6 |
| 20260502234122 | 90 | 15 | 4.0 | 8.0 | 0.00 | 0.00 | 0.00 | 15 | 1008.7 |
| 20260502233144 | 90 | 7 | 7.0 | 12.0 | 0.00 | 0.00 | 0.00 | 15 | 1008.9 |
| 20260502232122 | 91 | 6 | 9.0 | 16.0 | 0.00 | 0.00 | 0.00 | 14 | 1008.8 |
| 20260502231122 | 90 | 358 | 6.0 | 11.0 | 0.00 | 0.00 | 0.00 | 14 | 1008.7 |
| 20260502230144 | 91 | 359 | 8.0 | 15.0 | 0.00 | 0.00 | 0.00 | 14 | 1008.8 |
| 20260502225123 | 91 | 358 | 6.0 | 11.0 | 0.00 | 0.00 | 0.00 | 14 | 1008.8 |
| 20260502224122 | 90 | 358 | 4.0 | 11.0 | 0.00 | 0.00 | 0.00 | 15 | 1009.0 |
| 20260502223122 | 90 | 4 | 6.0 | 12.0 | 0.00 | 0.00 | 0.00 | 14 | 1009.4 |
| 20260502222143 | 89 | 353 | 4.0 | 10.0 | 0.00 | 0.00 | 0.00 | 14 | 1009.3 |
| 20260502221122 | 90 | 356 | 4.0 | 9.0 | 0.00 | 0.00 | 0.00 | 14 | 1009.5 |
| 20260502220123 | 90 | 0 | 6.0 | 11.0 | 0.00 | 0.00 | 0.00 | 15 | 1009.6 |
| 20260502215122 | 90 | 46 | 3.0 | 8.0 | 0.00 | 0.00 | 0.00 | 14 | 1009.7 |
| 20260502214123 | 89 | 358 | 3.0 | 5.0 | 0.00 | 0.00 | 0.00 | 15 | 1010.0 |
| 20260502213144 | 90 | 2 | 2.0 | 6.0 | 0.00 | 0.00 | 0.00 | 15 | 1010.1 |
| 20260502212144 | 92 | 15 | 5.0 | 10.0 | 0.00 | 0.00 | 0.00 | 16 | 1010.3 |